"Pseudo-MPEC" for A118pY8

Created 2024 Jul 16 12:22:04 UT using Find_Orb

Click here for an explanation of pseudo-MPECs

 
 Astrometry: 
     A118pY8* C2024 07 14.32384201 22 30.890-20 40 28.78   ~7EBb 18.22oVNEOCPW68
     A118pY8  C2024 07 14.32699601 22 28.423-20 39 31.54   ~7EBb 18.24oVNEOCPW68
     A118pY8  C2024 07 14.33014901 22 25.985-20 38 35.45   ~7EBb 17.71oVNEOCPW68
     A118pY8  C2024 07 14.34052401 22 17.731-20 35 24.83   ~7EBb 17.96oVNEOCPW68
     A118pY8* C2024 07 14.51249701 20 41.107-19 45 49.39   ~7FEM 18.79oVNEOCPT05
     A118pY8  C2024 07 14.51294901 20 40.738-19 45 40.46   ~7FEM 18.78oVNEOCPT05
     A118pY8  C2024 07 14.51340101 20 40.418-19 45 32.33   ~7FEM 18.90oVNEOCPT05
     A118pY8  C2024 07 14.51385301 20 40.001-19 45 23.29   ~7FEM 18.25oVNEOCPT05
     A118pY8  C2024 07 14.51430501 20 39.631-19 45 13.61   ~7FEM 18.31oVNEOCPT05
     A118pY8* C2024 07 15.31296701 09 31.934-13 38 53.63   ~7GBM 17.87oVNEOCPW68
     A118pY8  C2024 07 15.31522001 09 29.170-13 37 39.04   ~7GBM 17.46oVNEOCPW68
     A118pY8  C2024 07 15.32064601 09 22.363-13 34 34.25   ~7GBM 17.93oVNEOCPW68
     A118pY8  C2024 07 15.32740001 09 13.826-13 30 44.21   ~7GBM 17.82oVNEOCPW68
     A118pY8  C2024 07 15.37674901 08 08.89 -13 01 58.8    ~7GBM       WNEOCPX09
     A118pY8  C2024 07 15.37718401 08 08.208-13 01 44.80   ~7GBM 16.80oVNEOCPW68
     A118pY8  C2024 07 15.37763501 08 07.582-13 01 28.24   ~7GBM 17.45oVNEOCPW68
     A118pY8  C2024 07 15.37808501 08 07.126-13 01 15.60   ~7G9qx18.15oVNEOCPW68
     A118pY8  C2024 07 15.37853601 08 06.379-13 00 56.23   ~7GBM 17.36oVNEOCPW68
     A118pY8  C2024 07 15.37898701 08 05.801-13 00 40.54   ~7GBM 17.61oVNEOCPW68
     A118pY8  C2024 07 15.37958101 08 05.02 -13 00 17.2    ~7GBM       WNEOCPX09
     A118pY8  C2024 07 15.39749901 07 40.43 -12 49 31.6    ~7GBM       WNEOCPX09
     A118pY8  C2024 07 15.40038101 07 36.47 -12 47 47.5    ~7GBM       WNEOCPX09
     A118pY8  C2024 07 15.44701601 06 30.506-12 18 49.90   ~7G9qx18.38oVNEOCPW68
     A118pY8* C2024 07 15.49033201 06 35.573-12 01 45.16   ~7GBM 17.58oVNEOCPT05
     A118pY8  C2024 07 15.49078401 06 35.210-12 01 33.06   ~7GBMx19.01oVNEOCPT05
     A118pY8  C2024 07 15.49123701 06 34.330-12 01 09.80   ~7GBM 17.14oVNEOCPT05
     A118pY8  C2024 07 15.49168901 06 33.806-12 00 53.75   ~7GBM 17.54oVNEOCPT05
     A118pY8  C2024 07 15.49214101 06 33.233-12 00 37.55   ~7GBM 17.46oVNEOCPT05
     A118pY8 KC2024 07 16.02027800 54 20.40 -05 08 58.5    ~7GBM 17.4 GVNEOCPL01
     A118pY8 KC2024 07 16.02099500 54 19.14 -05 08 17.3    ~7GBM 17.5 GVNEOCPL01
     A118pY8 KC2024 07 16.02177700 54 17.72 -05 07 32.5    ~7GBM 17.8 GVNEOCPL01
     A118pY8 KC2024 07 16.02259100 54 16.24 -05 06 45.9    ~7GBM 17.5 GVNEOCPL01
     A118pY8 KC2024 07 16.02341300 54 14.77 -05 05 58.9    ~7GBM 17.5 GVNEOCPL01
     A118pY8 KC2024 07 16.02420400 54 13.33 -05 05 13.1    ~7GBM 17.5 GVNEOCPL01
     A118pY8 KC2024 07 16.02505500 54 11.81 -05 04 24.5    ~7GBM 17.5 GVNEOCPL01
     A118pY8 KB2024 07 16.05127 00 53 20.60 -04 39 37.3    ~7GBM 17.1 GXNEOCPG00
     A118pY8 KB2024 07 16.05317 00 53 17.04 -04 37 46.1    ~7GBM 17.0 GXNEOCPG00
     A118pY8 KB2024 07 16.05520 00 53 13.21 -04 35 46.7    ~7GBM 17.5 GXNEOCPG00
     A118pY8 KB2024 07 16.09058100 52 17.99 -03 59 23.6    ~7GBM 17.3 GXNEOCP958
     A118pY8 KB2024 07 16.09137500 52 16.44 -03 58 34.9    ~7GBM 17.1 GXNEOCP958
     A118pY8 KB2024 07 16.09487300 52 09.62 -03 55 02.2    ~7GBM 17.3 GXNEOCP958
     A118pY8 KB2024 07 16.09684300 52 05.76 -03 53 02.3    ~7GBM 17.5 GXNEOCP958
     A118pY8 KB2024 07 16.09832100 52 02.87 -03 51 33.0    ~7GBM 17.3 GXNEOCP958
     A118pY8 KB2024 07 16.10306600 51 53.44 -03 46 42.0    ~7GBM 17.5 GXNEOCP958
     A118pY8 0B2024 07 16.18520600 48 44.088-01 59 56.48   ~7GBM 17.4 VZNEOCPM49
     A118pY8 0B2024 07 16.18732500 48 39.199-01 57 35.54   ~7GBM 17.2 VZNEOCPM49
     A118pY8 0B2024 07 16.18940400 48 34.417-01 55 17.11   ~7GBM 17.1 VZNEOCPM49
     A118pY8 (C2024 07 16.21958 00 48 02.39 -01 37 29.4    ~7GBM 17.3 GVNEOCPG40
     A118pY8 (C2024 07 16.22263 00 47 55.27 -01 34 02.3    ~7GBM 17.3 GVNEOCPG40

Station data:
(958) Observatoire de Dax  (N43.693381 W1.030530)  France.  Observer P.
   Dupouy. 0.32-m Schmidt-Cassegrain.
(G00) AZM Martinsberg, Oed  (N48.381561 E15.126000)  Austria.  Observers M.
   Jaeger, E. Prosperi, S. Prosperi. Measurer M. Jaeger. 0.28-m f/2.2
   reflector + CCD.
(G40) Slooh.com Canary Islands Observatory  (N28.299717 W16.508260)  Canary
   Islands (Spain).  Observer K. Dankov. Measurers G. Gašparović, Y. Chen.
   0.43-m f/6.8 Corrected Dall-Kirkham + CCD.
(L01) Višnjan Observatory, Tičan  (N45.290897 E13.749300)  Croatia.
   Observers K. Korlević, D. Pujagic, V. Dobos. Measurers D. Pujagic, K.
   Korlević. 1.0-m f/2.9 reflector + CCD.
(M49) IAS Remote Observatory, Hakos  (S23.236549 E16.361720)  Namibia.
   Observers D. Husar, M. Junius. Measurer D. Husar. 0.25-m f/4.6 reflector +
   CCD.
(T05) ATLAS-HKO, Haleakala  (N20.707551 W156.257010)  US/Hawaii.  Observers
   L. Denneau, A. Heinze, H. Weiland, J. Tonry, H. Flewelling, A.
   Fitzsimmons, D. Young, B. Stalder. Measurers L. Denneau, A. Heinze, J.
   Tonry. 0.5-m f/2.0 Schmidt + CCD.
(W68) ATLAS Chile, Rio Hurtado  (S30.471010 W70.764980)  Chile.  Observers L.
   Denneau, R. Siverd, J. Tonry, H. Weiland. Measurers L. Denneau, N.
   Erasmus, A. Fitzsimmons, A. Lawrence, J. Robinson, R. Siverd, J. Tonry, H.
   Weiland. 0.5-m reflector + CCD.
(X09) Deep Random Survey, Rio Hurtado  (S30.526310 W70.853300)  Chile.

Orbital elements:  A118pY8
   Perihelion 2024 Nov 15.47237 +/- 0.00787 TT = 11:20:13 (JD 2460629.97237)
Epoch 2024 Jul 16.0 TT = JDT 2460507.5   Earth MOID: 0.0017      AutoNEOCP
M 190.56315716 +/- 0.0011           (J2000 ecliptic)
n   1.38346989 +/- 7.95e-5          Peri.  173.41315 +/- 0.00011
a   0.79766935 +/- 3.06e-5          Node   294.46851 +/- 0.00010
e   0.2795742 +/- 5.05e-5           Incl.   12.48013 +/- 0.0036
P   0.712/260.210d         H 25.15  G  0.15   U  6.4
q 0.57466157 +/- 6.23e-5    Q 1.02067712 +/- 1.16e-6
46 of 49 observations 2024 July 14-16 (45.6 hr); mean residual 0".44
Residuals in arcseconds: 
240714 W68  .23-  .43+    240715 W68  .29-  .08-    240716 L01  .13-  .00     
240714 W68  .35-  .53+    240715 W68  .22+  .52-    240716 G00  .30-  1.2+    
240714 W68  .10+  .66-    240715 X09  .30-  .76+    240716 G00  .04-  .66+    
240714 W68  .36-  .38+    240715 X09  .26-  .29+    240716 G00  .00   .48+    
240714 T05  .33+  .19+    240715 X09  .25+  .48-    240716 958  .25+  .35-    
240714 T05  .20+  .21+    240715 W68( .65-  3.6+)   240716 958  .16+  .14+    
240714 T05  .76+  .57-    240715 T05  .42+  .02-    240716 958  .23+  .09+    
240714 T05  .04-  .45-    240715 T05( 3.6+  5.0-)   240716 958  .23+  .11-    
240714 T05  .17-  .32+    240715 T05  .67-  1.1+    240716 958  .43+  1.1-    
240715 W68  .25-  .15+    240715 T05  .21+  .11+    240716 958  .54-  .54-    
240715 W68  .38+  1.4-    240715 T05  .39+  .78-    240716 M49  .07-  .26+    
240715 W68  .33+  .56-    240716 L01  .30-  .10-    240716 M49  .18-  .33+    
240715 W68  .52+  .70-    240716 L01  .10+  .06+    240716 M49  .03+  .31+    
240715 X09  .04+  .34+    240716 L01  .13-  .07+    240716 G40  .63+  .77-    
240715 W68  .40-  .36-    240716 L01  .36-  .02+    240716 G40  .07+  .75-    
240715 W68  .60-  .10+    240716 L01  .20-  .12-    
240715 W68( 1.7+  3.3-)   240716 L01  .39-  .28+    

Ephemerides (geocentric):
Date (UTC) HH   RA             Dec           delta  r     elong  mag " sig PA
---- --------  ------------   ------------  ------ ------ -----  --- --------
2024 07 16 12  00 37 41.333   +04 27 17.94  .00703 1.0180 103.7 17.1 .307 155
2024 07 16 13  00 35 58.703   +05 27 21.18  .00691 1.0180 103.7 17.0 .332 156
2024 07 16 14  00 34 12.205   +06 29 26.32  .00680 1.0180 103.8 17.0 .359 157
2024 07 16 15  00 32 21.628   +07 33 36.42  .00669 1.0180 103.8 17.0 .388 158
2024 07 16 16  00 30 26.750   +08 39 54.33  983943 1.0179 103.8 16.9 .420 158
2024 07 16 17  00 28 27.328   +09 48 22.56  968032 1.0179 103.8 16.9 .454 159
2024 07 16 18  00 26 23.107   +10 59 03.28  952585 1.0179 103.8 16.9 .490 159
2024 07 16 19  00 24 13.810   +12 11 58.20  937626 1.0179 103.8 16.8 .530 159
2024 07 16 20  00 21 59.144   +13 27 08.51  923178 1.0178 103.8 16.8 .572 160
2024 07 16 21  00 19 38.792   +14 44 34.77  909266 1.0178 103.8 16.8 .617 160
2024 07 16 22  00 17 12.416   +16 04 16.82  895915 1.0178 103.7 16.7 .666 160
2024 07 16 23  00 14 39.653   +17 26 13.72  883151 1.0177 103.7 16.7 .717 160
2024 07 17 00  00 12 00.114   +18 50 23.57  870998 1.0177 103.6 16.7 .772 160
2024 07 17 01  00 09 13.381   +20 16 43.50  859485 1.0177 103.5 16.6 .830 160
2024 07 17 02  00 06 19.005   +21 45 09.49  848636 1.0177 103.4 16.6 .891 160
2024 07 17 03  00 03 16.506   +23 15 36.33  838477 1.0176 103.3 16.6 .955 159
2024 07 17 04  00 00 05.369   +24 47 57.53  829034 1.0176 103.2 16.6 1.02 159
2024 07 17 05  23 56 45.041   +26 22 05.23  820332 1.0176 103.0 16.6 1.09 159
2024 07 17 06  23 53 14.931   +27 57 50.16  812394 1.0175 102.9 16.5 1.17 159
2024 07 17 07  23 49 34.405   +29 35 01.62  805244 1.0175 102.7 16.5 1.24 158
2024 07 17 08  23 45 42.787   +31 13 27.44  798902 1.0175 102.5 16.5 1.32 158
2024 07 17 09  23 41 39.355   +32 52 54.06  793388 1.0174 102.3 16.5 1.40 157
2024 07 17 10  23 37 23.341   +34 33 06.51  788719 1.0174 102.1 16.5 1.48 157
2024 07 17 11  23 32 53.930   +36 13 48.56  784911 1.0174 101.8 16.5 1.57 156
2024 07 17 12  23 28 10.259   +37 54 42.80  781975 1.0174 101.6 16.5 1.65 155
2024 07 17 13  23 23 11.421   +39 35 30.77  779923 1.0173 101.3 16.5 1.74 154
2024 07 17 14  23 17 56.465   +41 15 53.18  778760 1.0173 101.0 16.5 1.82 154
2024 07 17 15  23 12 24.401   +42 55 30.02  778492 1.0173 100.7 16.5 1.91 153
2024 07 17 16  23 06 34.209   +44 34 00.86  779118 1.0172 100.3 16.5 1.99 152
2024 07 17 17  23 00 24.848   +46 11 05.00  780637 1.0172 100.0 16.6 2.07 151
2024 07 17 18  22 53 55.267   +47 46 21.69  783043 1.0172  99.6 16.6 2.15 149
2024 07 17 19  22 47 04.431   +49 19 30.40  786328 1.0171  99.3 16.6 2.23 148
2024 07 17 20  22 39 51.337   +50 50 10.99  790481 1.0171  98.9 16.6 2.31 147
2024 07 17 21  22 32 15.047   +52 18 03.93  795489 1.0171  98.5 16.7 2.38 145
2024 07 17 22  22 24 14.723   +53 42 50.51  801335 1.0170  98.2 16.7 2.45 144
2024 07 17 23  22 15 49.673   +55 04 13.01  808002 1.0170  97.8 16.7 2.52 142
2024 07 18 00  22 06 59.393   +56 21 54.87  815468 1.0170  97.4 16.8 2.58 140
2024 07 18 01  21 57 43.632   +57 35 40.92  823713 1.0169  97.0 16.8 2.64 138
2024 07 18 02  21 48 02.442   +58 45 17.46  832712 1.0169  96.6 16.8 2.70 136
2024 07 18 03  21 37 56.244   +59 50 32.53  842442 1.0169  96.2 16.9 2.75 134
2024 07 18 04  21 27 25.881   +60 51 16.01  852877 1.0169  95.8 16.9 2.80 131
2024 07 18 05  21 16 32.671   +61 47 19.84  863992 1.0168  95.5 16.9 2.84 129
2024 07 18 06  21 05 18.436   +62 38 38.12  875761 1.0168  95.1 17.0 2.88 127
2024 07 18 07  20 53 45.519   +63 25 07.36  888157 1.0168  94.7 17.0 2.92 124
2024 07 18 08  20 41 56.772   +64 06 46.50  901155 1.0167  94.3 17.1 2.96 121
2024 07 18 09  20 29 55.511   +64 43 37.03  914729 1.0167  94.0 17.1 2.99 119
2024 07 18 10  20 17 45.444   +65 15 43.05  928853 1.0167  93.6 17.2 3.02 116
2024 07 18 11  20 05 30.564   +65 43 11.12  943503 1.0166  93.3 17.2 3.04 113